Tracking 33200 objects as of 17-Feb-2026
HD Live streaming from Space Station
objects crossing your sky now

STARLINK-34629

Track STARLINK-34629 now!
10-day predictions
STARLINK-34629 is classified as:


NORAD ID: 64790
Int'l Code: 2025-150A
Perigee: 576.7 km
Apogee: 581.6 km
Inclination: 70.0 °
Period: 96.1 minutes
Semi major axis: 6950 km
RCS: Unknown
Launch date: July 16, 2025
Source: United States (US)
Launch site: AIR FORCE WESTERN TEST RANGE (AFWTR)
Your satellite tracking list
Your tracking list is empty




NASA's NSSDC Master Catalog

Two Line Element Set (TLE):
1 64790U 25150A   26047.82056431  .00005464  00000-0  46532-3 0  9999
2 64790  70.0022 186.9636 0003511 271.3868  88.6889 14.98335742 33394
Source of the keplerian elements: AFSPC